Weather in Ulukulevo

Russia / Republic of Bashkortostan     54°25′43″N   56°19′27″E
temp.,
°C
wind,
m/s
gust,
m/s
humid.,
%
clouds,
%
prec.,
mm/h
press.,
hPa
HPBL,
m
4 march, thu
thu423:00−4sw489599 0.3 1001205
02:00−6wsw499498 0.1 1001266
05:00−7w599598 0.4 1002391
08:00−11w4895100 0.4 1003182
11:00−9sw589279 0.4 1004309
14:00−6ssw61094100 1.2 1003612
17:00−5ssw71289100 1.5 1001617
20:00−4ssw91594100 0.6 1000904
5 march, fri
fri523:00−3ssw101793100 1.9 997919
02:000wsw91694100 0.4 9961103
05:00−1w61391100 1.2 998695
08:00−3wsw71385100 0.3 1000586
11:00−3w4696100 1.1 1001484
14:00−2wnw2396100 1.9 1001355
17:00−3nnw4696100 4.1 1002449
20:00−6nw3592100 0.4 1004100
6 march, sat
sat623:00−13nw348993 0.4 100934
02:00−17w12900 0.0 101120
05:00−17ssw22870 0.0 101320
08:00−17ssw23860 0.0 101420
11:00−12ssw35830 0.0 1013188
14:00−9ssw46830 0.0 1013355
17:00−8ssw468933 0.0 1012358
20:00−11ssw3593100 0.0 101283
7 march, sun
sun723:00−12sw2296100 0.1 101221
02:00−12wsw1196100 0.1 101121
05:00−13nw2397100 0.2 101037
08:00−15nw3497100 0.1 101097
11:00−15nw5695100 0.2 1010262
14:00−14nw4693100 0.1 1010332
17:00−14wnw359198 0.1 1011375
20:00−19sw229726 0.0 101320
8 march, mon
mon823:00−20s349413 0.0 101436
02:00−18sse5109562 0.0 1013237
05:00−16s7149281 0.1 1011348
08:00−14s91693100 0.3 1007455
11:00−11s101686100 0.6 1005759
14:00−4sw91493100 0.8 10051112
17:00−5wsw488083 1.3 1006395
20:00−9s348167 0.0 100758